Regional Weather Roundup
Issued by NWS

Home | Current Version | Previous Version | Graphics & Text | Print | Product List | Glossary On
Versions: 1 2 3 4 5 6 7 8 9 10 11 12 13 14 15 16 17 18 19 20 21 22 23 24 25 26 27 28 29 30 31 32 33 34 35 36 37 38 39 40 41 42 43 44 45 46 47 48 49 50
000
ASUS45 KSLC 301610
RWRUT

UTAH REGIONAL WEATHER ROUNDUP
NATIONAL WEATHER SERVICE SALT LAKE CITY UT
1000 AM MDT TUE SEP 30 2014

UTZ001>011-023>025-301700-

NORTHERN UTAH

CITY           SKY/WX    TMP DP  RH WIND       PRES   REMARKS
HILL AFB       PTSUNNY   53  48  83 S13       29.99S
LOGAN          NOT AVBL
OGDEN          MOSUNNY   55  49  80 S6        29.98S
PROVO AIRPORT  PTSUNNY   54  45  71 CALM      30.01F
SALT LAKE CITY PTSUNNY   56  48  74 SE6       29.98S
VERNAL         PTSUNNY   49  44  83 CALM      29.98S
WENDOVER       MOSUNNY   57  43  58 S3        29.98S
HEBER CITY     CLOUDY    50  43  76 NW5       30.01S
WEST JORDAN    PTSUNNY   57  46  67 S8        30.00S

$$

UTZ012>022-026-027-301700-

SOUTHERN UTAH

CITY           SKY/WX    TMP DP  RH WIND       PRES   REMARKS
BRYCE CANYON   SUNNY     49  36  61 W12       30.11S
CEDAR CITY     SUNNY     56  38  50 CALM      30.06R
MILFORD        SUNNY     53  45  74 S9        30.03F
MOAB/CYNLANDS  SUNNY     55  45  68 SE5       29.99S
PRICE          MOSUNNY   51  44  77 SE3       30.02S
ST GEORGE      PTSUNNY   63  41  45 SW3       30.00S
KANAB            N/A     54  43  66 CALM      30.08S

$$

REGIONAL REPORTS     COLORADO/ARIZONA

CITY           SKY/WX    TMP DP  RH WIND       PRES   REMARKS
CRAIG, CO      PTSUNNY   55  39  54 SW13      29.99F
GRAND JUNCTION PTSUNNY   53  43  68 SE10      30.01S
RIFLE          CLOUDY    45  42  89 NE3       30.03S
MONTROSE       MOSUNNY   50  43  77 CALM      30.05F
CORTEZ         SUNNY     53  38  56 CALM      30.07S
PAGE, AZ       NOT AVBL
GRAND CANYON   SUNNY     55  38  52 CALM      30.12S
KINGMAN        NOT AVBL
FLAGSTAFF      SUNNY     55  37  50 CALM      30.13S

$$

REGIONAL REPORTS    NEVADA/IDAHO/WYOMING

CITY           SKY/WX    TMP DP  RH WIND       PRES   REMARKS
LAS VEGAS, NV  MOSUNNY   73  38  27 S3        29.90S
ELY            PTSUNNY   45  38  76 S10       30.10R
ELKO           PTSUNNY   48  44  86 NW3       30.03R
POCATELLO, ID  CLOUDY    53  48  83 SW13      29.95R
BURLEY         CLOUDY    52  49  89 SW6       29.94R
EVANSTON, WY   LGT RAIN  43  42  97 SW10      30.03R
ROCK SPRINGS   CLOUDY    45  39  79 W17       29.97R

$$



USA.gov is the U.S. government's official web portal to all federal, state and local government web resources and services.